Darstellungsparameter: Aktuell verwendete Einstellungen:
Skalierung der Graphiken ... ?
xyx+y,   Skalierungsfaktor:      Skalierung: Modus: x, Faktor: 1
Darstellungszeitraum ... ?
Vom - - bis: - -   Zeitraum: 03.08.2016 - 02.08.2017
Min/Max/Avg-Anzeige ... ?
Zeige MMA aktuell
Zeige MMA Monat
Zeige MMA alles
Zeige --A aktuell
Zeige --A Monat
Zeige --A alles
Keine MMA-Anzeige
MMA:
Keine MMA-Graphiken
MMA-Basis: 03.08.2016 - 02.08.2017
Quicknavigation für Darstellung... ?
Tage:      1T, 2T, 3T, 5T -1T -2T -3T -5T +1T +2T +3T +5T
Wochen: 1W, 2W, 3W -1W -2W -3W +1W +2W +3W
Monate: 1M, 3M, 6M -1M -3M -6M +1M +3M +6M
Jahre:    1J, 3J, 5J, 10J -1J -3J -5J -10J +1J +3J +5J +10J
Nutze für die Darstellung ... ?
Originaldaten oder ...
Mittelwerte Minima Maxima auf...
Stundenbasis Tagesbasis Wochenbasis
Monatsbasis Jahresbasis      Datenbasis: Mittelwerte auf Tagesbasis
Darstellen als:
Statistik (Auto) Statistik J:M      Darstellung:
Zur Graphik,    zurück zur Übersicht aller Sensoren.
 
Tabellarische Datenbersicht: ?
 
Sensor: Nr:Datum:Temp:Feuchte:
Aussen-T/F 1 03-08-2016 00:00:00 18.46667 C 38.4083 %
2 04-08-2016 00:00:00 17.91417 C 46.6333 %
3 05-08-2016 00:00:00 16.71833 C 33.8500 %
4 06-08-2016 00:00:00 18.14583 C 31.5833 %
5 07-08-2016 00:00:00 19.73 C 30.8917 %
6 08-08-2016 00:00:00 19.59083 C 23.6917 %
7 09-08-2016 00:00:00 17.05833 C 22.3000 %
8 10-08-2016 00:00:00 13.89917 C 26.0167 %
9 11-08-2016 00:00:00 12.59832 C 32.7059 %
10 12-08-2016 00:00:00 17.455 C 33.2250 %
11 13-08-2016 00:00:00 21.15833 C 31.2167 %
12 14-08-2016 00:00:00 19.95 C 30.1750 %
13 15-08-2016 00:00:00 19.69667 C 27.2250 %
14 16-08-2016 00:00:00 18.98167 C 26.7333 %
15 17-08-2016 00:00:00 18.93333 C 25.7417 %
16 18-08-2016 00:00:00 17.52 C 26.5500 %
17 19-08-2016 00:00:00 19.7325 C 28.2667 %
18 20-08-2016 00:00:00 19.64167 C 27.2333 %
19 21-08-2016 00:00:00 17.60333 C 26.8583 %
20 22-08-2016 00:00:00 17.8025 C 27.1750 %
21 23-08-2016 00:00:00 19.51 C 30.9333 %
22 24-08-2016 00:00:00 20.755 C 28.3583 %
23 25-08-2016 00:00:00 21.70333 C 28.8500 %
24 26-08-2016 00:00:00 22.62333 C 27.2417 %
25 27-08-2016 00:00:00 24.03 C 28.2583 %
Sensor: Nr:Datum:Temp:Feuchte:
Aussen-T/F 26 28-08-2016 00:00:00 23.51417 C 25.0417 %
27 29-08-2016 00:00:00 19.5725 C 24.0250 %
28 30-08-2016 00:00:00 18.9625 C 29.8667 %
29 31-08-2016 00:00:00 18.09833 C 24.6000 %
30 01-09-2016 00:00:00 19.885 C 25.6167 %
31 02-09-2016 00:00:00 18.95833 C 28.4750 %
32 03-09-2016 00:00:00 21.2725 C 24.6250 %
33 04-09-2016 00:00:00 18.2375 C 25.8750 %
34 05-09-2016 00:00:00 18.54917 C 25.8167 %
35 06-09-2016 00:00:00 16.93333 C 34.4917 %
36 07-09-2016 00:00:00 17.405 C 33.5750 %
37 08-09-2016 00:00:00 19.405 C 32.5083 %
38 09-09-2016 00:00:00 20.46333 C 21.3833 %
39 10-09-2016 00:00:00 19.22583 C 28.1083 %
40 11-09-2016 00:00:00 19.21667 C 26.7417 %
41 12-09-2016 00:00:00 19.5625 C 29.1333 %
42 13-09-2016 00:00:00 21.00833 C 29.4083 %
43 14-09-2016 00:00:00 20.675 C 27.7083 %
44 15-09-2016 00:00:00 19.8875 C 25.4083 %
45 16-09-2016 00:00:00 17.43917 C 39.9167 %
46 17-09-2016 00:00:00 15.91333 C 35.6083 %
47 18-09-2016 00:00:00 17.29167 C 42.7083 %
48 19-09-2016 00:00:00 15.64833 C 27.5250 %
49 20-09-2016 00:00:00 15.07833 C 30.5000 %
50 21-09-2016 00:00:00 13.86667 C 27.4167 %
Sensor: Nr:Datum:Temp:Feuchte:
Aussen-T/F 51 22-09-2016 00:00:00 11.25083 C 34.2583 %
52 23-09-2016 00:00:00 13.09417 C 32.6000 %
53 24-09-2016 00:00:00 13.36667 C 40.9167 %
54 25-09-2016 00:00:00 13.76917 C 38.9417 %
55 26-09-2016 00:00:00 14.44333 C 39.0333 %
56 27-09-2016 00:00:00 13.11333 C 52.0083 %
57 28-09-2016 00:00:00 15.245 C 38.0583 %
58 29-09-2016 00:00:00 18.65167 C 25.3417 %
59 30-09-2016 00:00:00 15.06167 C 29.6500 %
60 01-10-2016 00:00:00 13.58917 C 51.5333 %
61 02-10-2016 00:00:00 12.33333 C 43.2667 %
62 03-10-2016 00:00:00 12.23083 C 37.2000 %
63 04-10-2016 00:00:00 11.06833 C 47.8083 %
64 05-10-2016 00:00:00 8.02083 C 40.7917 %
65 06-10-2016 00:00:00 7.89917 C 32.8250 %
66 07-10-2016 00:00:00 10.76917 C 41.6833 %
67 08-10-2016 00:00:00 9.0625 C 53.2250 %
68 09-10-2016 00:00:00 8.21917 C 43.8417 %
69 10-10-2016 00:00:00 6.4375 C 44.8333 %
70 11-10-2016 00:00:00 7.66667 C 44.1250 %
71 12-10-2016 00:00:00 8.5225 C 34.6417 %
72 13-10-2016 00:00:00 7.0825 C 42.1917 %
73 14-10-2016 00:00:00 9.04333 C 34.3583 %
74 15-10-2016 00:00:00 10.78083 C 44.4417 %
75 16-10-2016 00:00:00 8.045 C 54.9250 %
Sensor: Nr:Datum:Temp:Feuchte:
Aussen-T/F 76 17-10-2016 00:00:00 10.0225 C 63.0667 %
77 18-10-2016 00:00:00 10.67917 C 47.8917 %
78 19-10-2016 00:00:00 8.77083 C 33.0917 %
79 20-10-2016 00:00:00 7.5975 C 52.8000 %
80 21-10-2016 00:00:00 7.21667 C 51.6083 %
81 22-10-2016 00:00:00 7.28167 C 49.5250 %
82 23-10-2016 00:00:00 6.66083 C 50.6500 %
83 24-10-2016 00:00:00 8.92167 C 63.3000 %
84 25-10-2016 00:00:00 11.005 C 51.3333 %
85 26-10-2016 00:00:00 8.985 C 42.9167 %
86 27-10-2016 00:00:00 8.2675 C 50.5250 %
87 28-10-2016 00:00:00 11.03667 C 37.9750 %
88 29-10-2016 00:00:00 11.12583 C 38.1417 %
89 30-10-2016 00:00:00 7.1712 C 54.7680 %
90 31-10-2016 00:00:00 6.11333 C 61.1167 %
91 01-11-2016 00:00:00 6.55083 C 60.1167 %
92 02-11-2016 00:00:00 6.48667 C 37.7417 %
93 03-11-2016 00:00:00 5.62917 C 36.2750 %
94 04-11-2016 00:00:00 4.18583 C 57.1667 %
95 05-11-2016 00:00:00 6.1875 C 59.2417 %
96 06-11-2016 00:00:00 4.91833 C 30.0917 %
97 07-11-2016 00:00:00 3.88333 C 40.0667 %
98 08-11-2016 00:00:00 2.37583 C 46.3750 %
99 09-11-2016 00:00:00 2.99583 C 53.2667 %
100 10-11-2016 00:00:00 4.55333 C 50.0000 %
Sensor: Nr:Datum:Temp:Feuchte:
Aussen-T/F 101 11-11-2016 00:00:00 4.3825 C 59.9250 %
102 12-11-2016 00:00:00 1.26417 C 47.5333 %
103 13-11-2016 00:00:00 1.32333 C 37.8333 %
104 14-11-2016 00:00:00 -1.67833 C 46.0917 %
105 15-11-2016 00:00:00 3.8725 C 39.5000 %
106 16-11-2016 00:00:00 9.1725 C 50.0750 %
107 17-11-2016 00:00:00 10.28167 C 32.9917 %
108 18-11-2016 00:00:00 8.59583 C 26.5250 %
109 19-11-2016 00:00:00 4.45417 C 39.7333 %
110 20-11-2016 00:00:00 8.31583 C 26.6583 %
111 21-11-2016 00:00:00 9.31917 C 45.5333 %
112 22-11-2016 00:00:00 9.50167 C 52.0583 %
113 23-11-2016 00:00:00 7.95417 C 67.0083 %
114 24-11-2016 00:00:00 7.5675 C 53.7583 %
115 25-11-2016 00:00:00 7.12917 C 22.5167 %
116 26-11-2016 00:00:00 6.3675 C 25.9417 %
117 27-11-2016 00:00:00 4.2 C 40.8667 %
118 28-11-2016 00:00:00 -1.0125 C 46.3583 %
119 29-11-2016 00:00:00 -4.42 C 35.8000 %
120 30-11-2016 00:00:00 -4.23833 C 36.9833 %
121 01-12-2016 00:00:00 2.62667 C 21.5583 %
122 02-12-2016 00:00:00 4.245 C 43.0250 %
123 03-12-2016 00:00:00 -0.60083 C 60.1250 %
124 04-12-2016 00:00:00 -3.84417 C 47.8167 %
125 05-12-2016 00:00:00 -5.46833 C 44.0333 %
Sensor: Nr:Datum:Temp:Feuchte:
Aussen-T/F 126 06-12-2016 00:00:00 -4.63417 C 45.9417 %
127 07-12-2016 00:00:00 -1.23 C 55.7333 %
128 08-12-2016 00:00:00 -0.39583 C 54.6667 %
129 09-12-2016 00:00:00 5.92583 C 21.0417 %
130 10-12-2016 00:00:00 3.77833 C 40.4750 %
131 11-12-2016 00:00:00 7.3925 C 25.0750 %
132 12-12-2016 00:00:00 5.93583 C 39.9833 %
133 13-12-2016 00:00:00 3.34583 C 65.2250 %
134 14-12-2016 00:00:00 5.935 C 48.1167 %
135 15-12-2016 00:00:00 6.37417 C 39.5917 %
136 16-12-2016 00:00:00 4.1375 C 22.6833 %
137 17-12-2016 00:00:00 3.35083 C 34.1750 %
138 18-12-2016 00:00:00 4.61167 C 41.6167 %
139 19-12-2016 00:00:00 3.69083 C 40.5917 %
140 20-12-2016 00:00:00 -0.2625 C 40.4500 %
141 21-12-2016 00:00:00 1.50833 C 37.0917 %
142 22-12-2016 00:00:00 3.135 C 42.5833 %
143 23-12-2016 00:00:00 3.4975 C 50.4417 %
144 24-12-2016 00:00:00 6.43833 C 23.7750 %
145 25-12-2016 00:00:00 7.98083 C 27.9917 %
146 26-12-2016 00:00:00 6.85083 C 28.5167 %
147 27-12-2016 00:00:00 3.36083 C 31.3417 %
148 28-12-2016 00:00:00 2.765 C 32.3750 %
149 29-12-2016 00:00:00 -2.31583 C 49.4333 %
150 30-12-2016 00:00:00 -2.7975 C 45.7583 %
Sensor: Nr:Datum:Temp:Feuchte:
Aussen-T/F 151 31-12-2016 00:00:00 -4.97167 C 40.1167 %
152 01-01-2017 00:00:00 -2.645 C 37.8583 %
153 02-01-2017 00:00:00 -0.26417 C 43.1250 %
154 03-01-2017 00:00:00 0.27717 C 59.5652 %
155 04-01-2017 00:00:00 2.4725 C 33.8417 %
156 05-01-2017 00:00:00 -1.62667 C 32.9833 %
157 06-01-2017 00:00:00 -8.04417 C 33.4250 %
158 07-01-2017 00:00:00 -5.00833 C 28.8833 %
159 08-01-2017 00:00:00 -0.27333 C 48.8667 %
160 09-01-2017 00:00:00 1.305 C 49.9167 %
161 10-01-2017 00:00:00 0.33833 C 54.5917 %
162 11-01-2017 00:00:00 2.7675 C 49.3083 %
163 12-01-2017 00:00:00 3.39 C 26.6583 %
164 13-01-2017 00:00:00 1.16833 C 32.4417 %
165 14-01-2017 00:00:00 1.5625 C 26.2083 %
166 15-01-2017 00:00:00 -0.2875 C 38.9417 %
167 16-01-2017 00:00:00 -2.95333 C 40.8917 %
168 17-01-2017 00:00:00 -5.14333 C 33.6917 %
169 18-01-2017 00:00:00 -7.12917 C 33.7333 %
170 19-01-2017 00:00:00 -8.02917 C 34.5500 %
171 20-01-2017 00:00:00 -8.47167 C 31.5833 %
172 21-01-2017 00:00:00 -7.91167 C 34.8083 %
173 22-01-2017 00:00:00 -9.46417 C 33.6583 %
174 23-01-2017 00:00:00 -6.45667 C 35.5667 %
175 24-01-2017 00:00:00 -1.59917 C 36.1417 %
Sensor: Nr:Datum:Temp:Feuchte:
Aussen-T/F 176 25-01-2017 00:00:00 -2.06134 C 21.1008 %
177 26-01-2017 00:00:00 -3.27167 C 23.9917 %
178 27-01-2017 00:00:00 -4.87833 C 33.7583 %
179 28-01-2017 00:00:00 -3.13417 C 35.4000 %
180 29-01-2017 00:00:00 1.74917 C 38.4417 %
181 30-01-2017 00:00:00 3.64583 C 50.8083 %
182 31-01-2017 00:00:00 2.45083 C 33.8167 %
183 01-02-2017 00:00:00 2.82417 C 29.1583 %
184 02-02-2017 00:00:00 3.84417 C 50.3250 %
185 03-02-2017 00:00:00 4.79833 C 53.5417 %
186 04-02-2017 00:00:00 4.85833 C 34.5500 %
187 05-02-2017 00:00:00 3.81333 C 37.2333 %
188 06-02-2017 00:00:00 2.905 C 39.3000 %
189 07-02-2017 00:00:00 3.68333 C 32.7000 %
190 08-02-2017 00:00:00 2.47583 C 26.7500 %
191 09-02-2017 00:00:00 -0.87083 C 28.4083 %
192 10-02-2017 00:00:00 0.07583 C 21.2250 %
193 11-02-2017 00:00:00 1.1675 C 39.9583 %
194 12-02-2017 00:00:00 1.77167 C 49.6917 %
195 13-02-2017 00:00:00 2.44917 C 24.7083 %
196 14-02-2017 00:00:00 0.02083 C 31.7250 %
197 15-02-2017 00:00:00 0.65333 C 38.4083 %
198 16-02-2017 00:00:00 2.98583 C 54.9000 %
199 17-02-2017 00:00:00 5.05167 C 53.0917 %
200 18-02-2017 00:00:00 5.56917 C 38.1000 %
Sensor: Nr:Datum:Temp:Feuchte:
Aussen-T/F 201 19-02-2017 00:00:00 2.74417 C 39.9417 %
202 20-02-2017 00:00:00 7.83667 C 30.5667 %
203 21-02-2017 00:00:00 9.77417 C 33.2917 %
204 22-02-2017 00:00:00 10.86167 C 22.7083 %
205 23-02-2017 00:00:00 8.95167 C 22.1250 %
206 24-02-2017 00:00:00 4.4525 C 26.0917 %
207 25-02-2017 00:00:00 3.06333 C 34.4667 %
208 26-02-2017 00:00:00 8.2025 C 22.5667 %
209 27-02-2017 00:00:00 10.56417 C 22.7417 %
210 28-02-2017 00:00:00 5.03667 C 25.5167 %
211 01-03-2017 00:00:00 6.07333 C 27.2250 %
212 02-03-2017 00:00:00 7.615 C 21.8417 %
213 03-03-2017 00:00:00 5.64417 C 27.7417 %
214 04-03-2017 00:00:00 10.41667 C 24.1750 %
215 05-03-2017 00:00:00 6.48667 C 29.1917 %
216 06-03-2017 00:00:00 5.80083 C 30.7583 %
217 07-03-2017 00:00:00 5.375 C 37.1500 %
218 08-03-2017 00:00:00 4.1425 C 57.5333 %
219 09-03-2017 00:00:00 10.71 C 40.6917 %
220 10-03-2017 00:00:00 7.1775 C 21.1917 %
221 11-03-2017 00:00:00 5.8775 C 29.0333 %
222 12-03-2017 00:00:00 5.82167 C 27.9833 %
223 13-03-2017 00:00:00 5.775 C 26.7667 %
224 14-03-2017 00:00:00 8.80333 C 26.7000 %
225 15-03-2017 00:00:00 10.8 C 22.7333 %
Sensor: Nr:Datum:Temp:Feuchte:
Aussen-T/F 226 16-03-2017 00:00:00 7.71667 C 32.6833 %
227 17-03-2017 00:00:00 8.33917 C 22.4167 %
228 18-03-2017 00:00:00 8.97583 C 28.3167 %
229 19-03-2017 00:00:00 12.0025 C 29.0167 %
230 20-03-2017 00:00:00 11.53917 C 20.0000 %
231 21-03-2017 00:00:00 8.86 C 25.1667 %
232 22-03-2017 00:00:00 5.1675 C 32.8583 %
233 23-03-2017 00:00:00 8.915 C 31.3000 %
234 24-03-2017 00:00:00 9.54583 C 23.0250 %
235 25-03-2017 00:00:00 9.54417 C 26.8417 %
236 26-03-2017 00:00:00 9.08696 C 20.0000 %
237 27-03-2017 00:00:00 8.34583 C 26.6083 %
238 28-03-2017 00:00:00 9.97417 C 22.6583 %
239 29-03-2017 00:00:00 12.77833 C 22.9417 %
240 30-03-2017 00:00:00 14.22417 C 22.9833 %
241 31-03-2017 00:00:00 13.35333 C 29.3000 %
242 01-04-2017 00:00:00 13.83417 C 20.9000 %
243 02-04-2017 00:00:00 11.94167 C 24.9167 %
244 03-04-2017 00:00:00 10.62 C 26.7750 %
245 04-04-2017 00:00:00 9.20333 C 28.3417 %
246 05-04-2017 00:00:00 8.82333 C 22.4667 %
247 06-04-2017 00:00:00 9.21083 C 20.3667 %
248 07-04-2017 00:00:00 10.40583 C 23.0667 %
249 08-04-2017 00:00:00 13.42167 C 20.0917 %
250 09-04-2017 00:00:00 12.59 C 28.2250 %
Sensor: Nr:Datum:Temp:Feuchte:
Aussen-T/F 251 10-04-2017 00:00:00 10.98833 C 23.4333 %
252 11-04-2017 00:00:00 10.6675 C 20.0000 %
253 12-04-2017 00:00:00 11.54667 C 20.0083 %
254 13-04-2017 00:00:00 12.27417 C 20.7667 %
255 14-04-2017 00:00:00 10.30417 C 22.3083 %
256 15-04-2017 00:00:00 8.6675 C 21.4500 %
257 16-04-2017 00:00:00 7.34417 C 23.7417 %
258 17-04-2017 00:00:00 6.805 C 28.0667 %
259 18-04-2017 00:00:00 5.69667 C 20.6333 %
260 19-04-2017 00:00:00 4.65667 C 28.3500 %
261 20-04-2017 00:00:00 6.6825 C 23.4667 %
262 21-04-2017 00:00:00 8.16917 C 22.1500 %
263 22-04-2017 00:00:00 9.88 C 20.0000 %
264 23-04-2017 00:00:00 7.65 C 20.5333 %
265 24-04-2017 00:00:00 6.5875 C 27.3250 %
266 25-04-2017 00:00:00 7.13193 C 20.0000 %
267 26-04-2017 00:00:00 7.62583 C 20.1500 %
268 27-04-2017 00:00:00 7.74917 C 23.9083 %
269 28-04-2017 00:00:00 6.26083 C 27.3167 %
270 29-04-2017 00:00:00 9.68667 C 30.5750 %
271 30-04-2017 00:00:00 11.3975 C 20.0000 %
272 01-05-2017 00:00:00 9.75083 C 27.4250 %
273 02-05-2017 00:00:00 8.5825 C 45.3500 %
274 03-05-2017 00:00:00 10.7175 C 39.5000 %
275 04-05-2017 00:00:00 11.94833 C 30.7750 %
Sensor: Nr:Datum:Temp:Feuchte:
Aussen-T/F 276 05-05-2017 00:00:00 12.685 C 23.2667 %
277 06-05-2017 00:00:00 13.30333 C 33.1667 %
278 07-05-2017 00:00:00 12.8375 C 37.3083 %
279 08-05-2017 00:00:00 9.69083 C 26.5500 %
280 09-05-2017 00:00:00 11.87667 C 24.9000 %
281 10-05-2017 00:00:00 11.33833 C 26.9167 %
282 11-05-2017 00:00:00 14.63833 C 25.1750 %
283 12-05-2017 00:00:00 16.395 C 30.7500 %
284 13-05-2017 00:00:00 18.05917 C 28.5167 %
285 14-05-2017 00:00:00 16.575 C 24.9333 %
286 15-05-2017 00:00:00 16.65 C 33.9583 %
287 16-05-2017 00:00:00 20.58167 C 20.0000 %
288 17-05-2017 00:00:00 21.33 C 20.8417 %
289 18-05-2017 00:00:00 18.02917 C 26.7583 %
290 19-05-2017 00:00:00 13.17667 C 46.5833 %
291 20-05-2017 00:00:00 12.655 C 37.4083 %
292 21-05-2017 00:00:00 14.64917 C 29.2750 %
293 22-05-2017 00:00:00 17.3675 C 27.8667 %
294 23-05-2017 00:00:00 19.65167 C 23.7417 %
295 24-05-2017 00:00:00 17.405 C 20.4000 %
296 25-05-2017 00:00:00 20.29 C 21.8917 %
297 26-05-2017 00:00:00 19.73833 C 24.5250 %
298 27-05-2017 00:00:00 22.6075 C 24.8667 %
299 28-05-2017 00:00:00 21.81583 C 24.8250 %
300 29-05-2017 00:00:00 24.57833 C 34.4500 %
Sensor: Nr:Datum:Temp:Feuchte:
Aussen-T/F 301 30-05-2017 00:00:00 22.94833 C 21.0500 %
302 31-05-2017 00:00:00 20.15917 C 21.0333 %
303 01-06-2017 00:00:00 20.24833 C 23.6500 %
304 02-06-2017 00:00:00 19.48083 C 25.5083 %
305 03-06-2017 00:00:00 19.46417 C 36.0000 %
306 04-06-2017 00:00:00 16.96583 C 37.9333 %
307 05-06-2017 00:00:00 17.975 C 34.7083 %
308 06-06-2017 00:00:00 16.04667 C 23.7250 %
309 07-06-2017 00:00:00 14.48333 C 20.5500 %
310 08-06-2017 00:00:00 19.25 C 21.2917 %
311 09-06-2017 00:00:00 18.0925 C 23.5250 %
312 10-06-2017 00:00:00 19.44 C 25.5417 %
313 11-06-2017 00:00:00 21.575 C 23.5750 %
314 12-06-2017 00:00:00 22.1675 C 20.1333 %
315 13-06-2017 00:00:00 19.81833 C 20.2667 %
316 14-06-2017 00:00:00 20.985 C 24.1917 %
317 15-06-2017 00:00:00 22.28333 C 21.9500 %
318 16-06-2017 00:00:00 20.18667 C 20.0000 %
319 17-06-2017 00:00:00 18.07917 C 20.4667 %
320 18-06-2017 00:00:00 23.58667 C 21.1333 %
321 19-06-2017 00:00:00 24.0825 C 23.3000 %
322 20-06-2017 00:00:00 25.57083 C 21.0333 %
323 21-06-2017 00:00:00 27.36167 C 20.0000 %
324 22-06-2017 00:00:00 24.04083 C 25.6833 %
325 23-06-2017 00:00:00 23.645 C 21.6583 %
Sensor: Nr:Datum:Temp:Feuchte:
Aussen-T/F 326 24-06-2017 00:00:00 21.56417 C 21.1667 %
327 25-06-2017 00:00:00 20.95 C 20.0000 %
328 26-06-2017 00:00:00 23.18333 C 20.0000 %
329 27-06-2017 00:00:00 19.20417 C 25.8000 %
330 28-06-2017 00:00:00 20.19167 C 37.8250 %
331 29-06-2017 00:00:00 18.5125 C 27.5083 %
332 30-06-2017 00:00:00 18.34833 C 22.5167 %
333 01-07-2017 00:00:00 16.22083 C 30.4250 %
334 02-07-2017 00:00:00 16.92 C 32.0250 %
335 03-07-2017 00:00:00 18.83333 C 27.3833 %
336 04-07-2017 00:00:00 21.9375 C 21.4833 %
337 05-07-2017 00:00:00 23.425 C 23.6833 %
338 06-07-2017 00:00:00 22.78417 C 24.7917 %
339 07-07-2017 00:00:00 24.54667 C 34.9667 %
340 08-07-2017 00:00:00 24.04167 C 22.1750 %
341 09-07-2017 00:00:00 23.87667 C 21.6750 %
342 10-07-2017 00:00:00 19.995 C 36.4250 %
343 11-07-2017 00:00:00 19.97417 C 25.9167 %
344 12-07-2017 00:00:00 17.8025 C 27.7583 %
345 13-07-2017 00:00:00 17.10583 C 27.2083 %
346 14-07-2017 00:00:00 16.94333 C 24.9917 %
347 15-07-2017 00:00:00 17.56583 C 24.2833 %
348 16-07-2017 00:00:00 19.83833 C 21.7500 %
349 17-07-2017 00:00:00 22.11583 C 25.7917 %
350 18-07-2017 00:00:00 23.18917 C 26.1500 %
Sensor: Nr:Datum:Temp:Feuchte:
Aussen-T/F 351 19-07-2017 00:00:00 24.29083 C 22.7083 %
352 20-07-2017 00:00:00 22.56083 C 28.0583 %
353 21-07-2017 00:00:00 21.25917 C 21.7417 %
354 22-07-2017 00:00:00 22.86083 C 31.7667 %
355 23-07-2017 00:00:00 19.16417 C 32.9917 %
356 24-07-2017 00:00:00 15.17 C 34.9083 %
357 25-07-2017 00:00:00 14.17917 C 53.8250 %
358 26-07-2017 00:00:00 17.7925 C 34.8833 %
359 27-07-2017 00:00:00 19.165 C 34.9917 %
360 28-07-2017 00:00:00 17.4625 C 30.7500 %
361 29-07-2017 00:00:00 20.93333 C 25.8500 %
362 30-07-2017 00:00:00 23.44917 C 24.9833 %
363 31-07-2017 00:00:00 21.3325 C 25.8250 %
364 01-08-2017 00:00:00 20.18333 C 47.5000 %
365 02-08-2017 00:00:00 22.01833 C 35.3417 %
Sensor: Nr:Datum:Temp:Feuchte:
G-T/H 1 03-08-2016 00:00:00 18.67333 C 68.2083 %
2 04-08-2016 00:00:00 18.74667 C 70.3583 %
3 05-08-2016 00:00:00 18.29667 C 70.3333 %
4 06-08-2016 00:00:00 19.07417 C 69.3750 %
5 07-08-2016 00:00:00 19.03 C 69.0833 %
6 08-08-2016 00:00:00 20.345 C 62.8750 %
7 09-08-2016 00:00:00 19.3975 C 57.0333 %
8 10-08-2016 00:00:00 18.12167 C 59.1917 %
9 11-08-2016 00:00:00 16.77899 C 61.9748 %
10 12-08-2016 00:00:00 17.08917 C 67.0000 %
11 13-08-2016 00:00:00 18.70167 C 66.4667 %
12 14-08-2016 00:00:00 19.23583 C 66.2917 %
13 15-08-2016 00:00:00 19.80833 C 63.8583 %
14 16-08-2016 00:00:00 20.05583 C 57.9917 %
15 17-08-2016 00:00:00 19.5975 C 59.9500 %
16 18-08-2016 00:00:00 19.10667 C 62.0250 %
17 19-08-2016 00:00:00 19.285 C 65.6833 %
18 20-08-2016 00:00:00 19.33917 C 67.0167 %
19 21-08-2016 00:00:00 18.56083 C 67.8500 %
20 22-08-2016 00:00:00 18.2 C 68.1000 %
21 23-08-2016 00:00:00 18.51083 C 68.4750 %
22 24-08-2016 00:00:00 20.7375 C 63.8417 %
23 25-08-2016 00:00:00 21.7675 C 61.5667 %
24 26-08-2016 00:00:00 21.88833 C 64.2083 %
25 27-08-2016 00:00:00 21.44167 C 67.6000 %
Sensor: Nr:Datum:Temp:Feuchte:
G-T/H 26 28-08-2016 00:00:00 21.2675 C 68.1333 %
27 29-08-2016 00:00:00 20.725 C 67.0750 %
28 30-08-2016 00:00:00 19.75833 C 63.6083 %
29 31-08-2016 00:00:00 19.81833 C 59.3500 %
30 01-09-2016 00:00:00 20.415 C 61.3167 %
31 02-09-2016 00:00:00 20.5325 C 60.0417 %
32 03-09-2016 00:00:00 21.2775 C 58.3833 %
33 04-09-2016 00:00:00 20.23417 C 62.0333 %
34 05-09-2016 00:00:00 19.63 C 61.6750 %
35 06-09-2016 00:00:00 19.45667 C 59.8000 %
36 07-09-2016 00:00:00 17.9625 C 62.8833 %
37 08-09-2016 00:00:00 20.22417 C 62.2667 %
38 09-09-2016 00:00:00 20.395 C 59.8500 %
39 10-09-2016 00:00:00 19.37583 C 63.5083 %
40 11-09-2016 00:00:00 19.84167 C 61.8500 %
41 12-09-2016 00:00:00 19.2425 C 63.9750 %
42 13-09-2016 00:00:00 19.18917 C 67.2250 %
43 14-09-2016 00:00:00 19.21167 C 67.7167 %
44 15-09-2016 00:00:00 20.69 C 62.9250 %
45 16-09-2016 00:00:00 19.985 C 62.3917 %
46 17-09-2016 00:00:00 18.71583 C 62.1417 %
47 18-09-2016 00:00:00 18.4775 C 65.9583 %
48 19-09-2016 00:00:00 18.15833 C 63.7833 %
49 20-09-2016 00:00:00 17.68667 C 65.4583 %
50 21-09-2016 00:00:00 16.9825 C 64.3250 %
Sensor: Nr:Datum:Temp:Feuchte:
G-T/H 51 22-09-2016 00:00:00 16.06167 C 59.4417 %
52 23-09-2016 00:00:00 15.82583 C 65.3667 %
53 24-09-2016 00:00:00 15.64417 C 67.9583 %
54 25-09-2016 00:00:00 15.26917 C 68.1167 %
55 26-09-2016 00:00:00 16.33 C 68.2917 %
56 27-09-2016 00:00:00 15.98083 C 69.3167 %
57 28-09-2016 00:00:00 16.32 C 68.9750 %
58 29-09-2016 00:00:00 16.83 C 70.3417 %
59 30-09-2016 00:00:00 17.00583 C 70.6167 %
60 01-10-2016 00:00:00 16.32667 C 71.0000 %
61 02-10-2016 00:00:00 15.67333 C 71.6083 %
62 03-10-2016 00:00:00 15.18 C 72.4000 %
63 04-10-2016 00:00:00 14.88 C 72.3167 %
64 05-10-2016 00:00:00 12.96083 C 60.0750 %
65 06-10-2016 00:00:00 12.69583 C 64.3417 %
66 07-10-2016 00:00:00 13.35833 C 70.4250 %
67 08-10-2016 00:00:00 13.4975 C 71.5583 %
68 09-10-2016 00:00:00 13.15583 C 69.0833 %
69 10-10-2016 00:00:00 12.26667 C 65.6583 %
70 11-10-2016 00:00:00 12.15083 C 68.7417 %
71 12-10-2016 00:00:00 12.37167 C 69.5583 %
72 13-10-2016 00:00:00 11.78 C 63.9417 %
73 14-10-2016 00:00:00 12.04583 C 65.1000 %
74 15-10-2016 00:00:00 12.9775 C 69.8500 %
75 16-10-2016 00:00:00 12.80667 C 68.1833 %
Sensor: Nr:Datum:Temp:Feuchte:
G-T/H 76 17-10-2016 00:00:00 12.835 C 72.4250 %
77 18-10-2016 00:00:00 13.08 C 73.2750 %
78 19-10-2016 00:00:00 12.90917 C 72.6917 %
79 20-10-2016 00:00:00 12.49167 C 72.9250 %
80 21-10-2016 00:00:00 12.16917 C 72.9667 %
81 22-10-2016 00:00:00 11.97167 C 73.1167 %
82 23-10-2016 00:00:00 11.56167 C 71.1250 %
83 24-10-2016 00:00:00 11.85333 C 73.8167 %
84 25-10-2016 00:00:00 12.67417 C 75.2000 %
85 26-10-2016 00:00:00 12.92083 C 72.7667 %
86 27-10-2016 00:00:00 11.9975 C 70.7667 %
87 28-10-2016 00:00:00 12.79417 C 71.9083 %
88 29-10-2016 00:00:00 13.4925 C 73.2500 %
89 30-10-2016 00:00:00 12.6816 C 71.9200 %
90 31-10-2016 00:00:00 11.75083 C 70.0667 %
91 01-11-2016 00:00:00 11.04417 C 69.4750 %
92 02-11-2016 00:00:00 11.27917 C 71.5500 %
93 03-11-2016 00:00:00 10.86 C 69.9917 %
94 04-11-2016 00:00:00 10.0325 C 67.5750 %
95 05-11-2016 00:00:00 10.58917 C 71.7750 %
96 06-11-2016 00:00:00 10.1525 C 69.2083 %
97 07-11-2016 00:00:00 9.85 C 68.7833 %
98 08-11-2016 00:00:00 9.42417 C 66.2417 %
99 09-11-2016 00:00:00 8.82583 C 66.7333 %
100 10-11-2016 00:00:00 9.30167 C 70.3000 %
Sensor: Nr:Datum:Temp:Feuchte:
G-T/H 101 11-11-2016 00:00:00 9.65417 C 71.9000 %
102 12-11-2016 00:00:00 8.685 C 64.9333 %
103 13-11-2016 00:00:00 8.31083 C 64.6083 %
104 14-11-2016 00:00:00 7.62917 C 61.3083 %
105 15-11-2016 00:00:00 8.05833 C 68.3083 %
106 16-11-2016 00:00:00 9.605 C 73.2917 %
107 17-11-2016 00:00:00 10.72917 C 74.0000 %
108 18-11-2016 00:00:00 11.2175 C 72.3333 %
109 19-11-2016 00:00:00 9.86333 C 67.3833 %
110 20-11-2016 00:00:00 9.69583 C 70.2250 %
111 21-11-2016 00:00:00 10.8675 C 72.8417 %
112 22-11-2016 00:00:00 11.305 C 73.8750 %
113 23-11-2016 00:00:00 11.27583 C 74.1333 %
114 24-11-2016 00:00:00 11.035 C 74.8083 %
115 25-11-2016 00:00:00 10.7 C 72.8750 %
116 26-11-2016 00:00:00 10.5825 C 71.8333 %
117 27-11-2016 00:00:00 10.20167 C 70.9917 %
118 28-11-2016 00:00:00 8.60417 C 61.3417 %
119 29-11-2016 00:00:00 7.215 C 58.6917 %
120 30-11-2016 00:00:00 5.98167 C 59.2667 %
121 01-12-2016 00:00:00 3.9525 C 66.1500 %
122 02-12-2016 00:00:00 8.02083 C 70.3667 %
123 03-12-2016 00:00:00 7.42417 C 63.9833 %
124 04-12-2016 00:00:00 6.275 C 61.7083 %
125 05-12-2016 00:00:00 5.36667 C 64.7667 %
Sensor: Nr:Datum:Temp:Feuchte:
G-T/H 126 06-12-2016 00:00:00 4.82967 C 64.3626 %
127 07-12-2016 00:00:00 5.38252 C 68.3883 %
128 08-12-2016 00:00:00 5.9125 C 69.6000 %
129 09-12-2016 00:00:00 6.99833 C 71.6333 %
130 10-12-2016 00:00:00 7.755 C 72.6417 %
131 11-12-2016 00:00:00 8.39667 C 74.1583 %
132 12-12-2016 00:00:00 9.10083 C 74.1333 %
133 13-12-2016 00:00:00 8.56083 C 71.4833 %
134 14-12-2016 00:00:00 8.81583 C 74.0417 %
135 15-12-2016 00:00:00 9.39 C 74.3000 %
136 16-12-2016 00:00:00 9.12417 C 69.5333 %
137 17-12-2016 00:00:00 7.19138 C 66.8793 %
138 18-12-2016 00:00:00 6.47667 C 73.8167 %
139 19-12-2016 00:00:00 6.53917 C 69.9833 %
140 20-12-2016 00:00:00 7.37 C 63.5167 %
141 21-12-2016 00:00:00 6.99 C 64.7917 %
142 22-12-2016 00:00:00 7.68917 C 69.0917 %
143 23-12-2016 00:00:00 7.73917 C 71.5917 %
144 24-12-2016 00:00:00 8.2975 C 72.4083 %
145 25-12-2016 00:00:00 8.90417 C 73.3417 %
146 26-12-2016 00:00:00 9.52917 C 72.0250 %
147 27-12-2016 00:00:00 8.22333 C 68.1667 %
148 28-12-2016 00:00:00 8.0975 C 69.3167 %
149 29-12-2016 00:00:00 6.70583 C 61.8833 %
150 30-12-2016 00:00:00 5.99833 C 63.3083 %
Sensor: Nr:Datum:Temp:Feuchte:
G-T/H 151 31-12-2016 00:00:00 5.83083 C 62.2667 %
152 01-01-2017 00:00:00 5.44917 C 64.1833 %
153 02-01-2017 00:00:00 5.875 C 67.6500 %
154 03-01-2017 00:00:00 6.26833 C 69.1333 %
155 04-01-2017 00:00:00 6.87333 C 70.5333 %
156 05-01-2017 00:00:00 6.42167 C 64.7417 %
157 06-01-2017 00:00:00 5.2175 C 62.1250 %
158 07-01-2017 00:00:00 5.225 C 61.2333 %
159 08-01-2017 00:00:00 5.37083 C 67.6667 %
160 09-01-2017 00:00:00 5.805 C 70.2583 %
161 10-01-2017 00:00:00 6.215 C 69.9833 %
162 11-01-2017 00:00:00 6.85417 C 73.1167 %
163 12-01-2017 00:00:00 7.36667 C 72.3333 %
164 13-01-2017 00:00:00 7.38917 C 68.9917 %
165 14-01-2017 00:00:00 6.96667 C 66.6000 %
166 15-01-2017 00:00:00 6.63083 C 66.1917 %
167 16-01-2017 00:00:00 5.80917 C 64.9167 %
168 17-01-2017 00:00:00 5.4625 C 65.3000 %
169 18-01-2017 00:00:00 5.16083 C 63.5417 %
170 19-01-2017 00:00:00 4.74667 C 62.7667 %
171 20-01-2017 00:00:00 4.44583 C 61.4250 %
172 21-01-2017 00:00:00 4.46917 C 61.4667 %
173 22-01-2017 00:00:00 6.90667 C 56.2500 %
174 23-01-2017 00:00:00 4.80167 C 59.9750 %
175 24-01-2017 00:00:00 4.74333 C 66.7000 %
Sensor: Nr:Datum:Temp:Feuchte:
G-T/H 176 25-01-2017 00:00:00 5.13697 C 66.5546 %
177 26-01-2017 00:00:00 4.95 C 66.4333 %
178 27-01-2017 00:00:00 4.87667 C 64.0167 %
179 28-01-2017 00:00:00 4.965 C 64.2417 %
180 29-01-2017 00:00:00 5.46167 C 67.2750 %
181 30-01-2017 00:00:00 6.3575 C 70.0750 %
182 31-01-2017 00:00:00 7.135 C 70.9417 %
183 01-02-2017 00:00:00 7.0975 C 69.4500 %
184 02-02-2017 00:00:00 7.63083 C 71.6000 %
185 03-02-2017 00:00:00 7.80583 C 71.7917 %
186 04-02-2017 00:00:00 7.86667 C 73.2833 %
187 05-02-2017 00:00:00 7.52167 C 72.1917 %
188 06-02-2017 00:00:00 7.44667 C 71.3500 %
189 07-02-2017 00:00:00 7.65917 C 69.1583 %
190 08-02-2017 00:00:00 7.745 C 67.0667 %
191 09-02-2017 00:00:00 6.61083 C 60.3750 %
192 10-02-2017 00:00:00 6.26583 C 62.6250 %
193 11-02-2017 00:00:00 6.50167 C 66.3417 %
194 12-02-2017 00:00:00 6.90333 C 69.8583 %
195 13-02-2017 00:00:00 6.77417 C 66.2250 %
196 14-02-2017 00:00:00 6.34667 C 63.3750 %
197 15-02-2017 00:00:00 6.06333 C 64.3167 %
198 16-02-2017 00:00:00 6.4425 C 67.4583 %
199 17-02-2017 00:00:00 7.16417 C 70.9167 %
200 18-02-2017 00:00:00 7.8825 C 71.6500 %
Sensor: Nr:Datum:Temp:Feuchte:
G-T/H 201 19-02-2017 00:00:00 6.91667 C 66.6917 %
202 20-02-2017 00:00:00 7.93417 C 71.2667 %
203 21-02-2017 00:00:00 9.10333 C 73.0000 %
204 22-02-2017 00:00:00 9.84667 C 73.5750 %
205 23-02-2017 00:00:00 10.02917 C 72.3500 %
206 24-02-2017 00:00:00 9.025 C 66.0583 %
207 25-02-2017 00:00:00 7.8125 C 64.1750 %
208 26-02-2017 00:00:00 8.2975 C 69.2667 %
209 27-02-2017 00:00:00 9.63917 C 70.5750 %
210 28-02-2017 00:00:00 9.33 C 66.9583 %
211 01-03-2017 00:00:00 8.60583 C 69.5417 %
212 02-03-2017 00:00:00 8.9175 C 65.6500 %
213 03-03-2017 00:00:00 8.58667 C 65.2583 %
214 04-03-2017 00:00:00 9.72083 C 67.1417 %
215 05-03-2017 00:00:00 9.9025 C 68.5167 %
216 06-03-2017 00:00:00 9.1775 C 69.4333 %
217 07-03-2017 00:00:00 8.97833 C 70.7333 %
218 08-03-2017 00:00:00 8.28333 C 70.1333 %
219 09-03-2017 00:00:00 9.54333 C 71.3083 %
220 10-03-2017 00:00:00 9.94 C 66.3417 %
221 11-03-2017 00:00:00 9.4 C 61.6667 %
222 12-03-2017 00:00:00 9.37083 C 56.6667 %
223 13-03-2017 00:00:00 9.06083 C 61.4333 %
224 14-03-2017 00:00:00 9.58917 C 65.5667 %
225 15-03-2017 00:00:00 10.38083 C 67.1833 %
Sensor: Nr:Datum:Temp:Feuchte:
G-T/H 226 16-03-2017 00:00:00 9.89833 C 64.6750 %
227 17-03-2017 00:00:00 9.92917 C 66.9833 %
228 18-03-2017 00:00:00 10.04833 C 66.3167 %
229 19-03-2017 00:00:00 10.80333 C 69.8417 %
230 20-03-2017 00:00:00 11.3975 C 70.0000 %
231 21-03-2017 00:00:00 11.28667 C 69.3000 %
232 22-03-2017 00:00:00 9.84 C 63.8000 %
233 23-03-2017 00:00:00 10.27083 C 66.0750 %
234 24-03-2017 00:00:00 10.7825 C 62.7500 %
235 25-03-2017 00:00:00 10.76167 C 57.7333 %
236 26-03-2017 00:00:00 10.54783 C 58.5826 %
237 27-03-2017 00:00:00 10.2775 C 50.5417 %
238 28-03-2017 00:00:00 11.49667 C 53.5167 %
239 29-03-2017 00:00:00 12.4025 C 60.0000 %
240 30-03-2017 00:00:00 13.8 C 58.8333 %
241 31-03-2017 00:00:00 13.9 C 55.5083 %
242 01-04-2017 00:00:00 13.5225 C 61.1333 %
243 02-04-2017 00:00:00 13.045 C 62.0500 %
244 03-04-2017 00:00:00 12.37917 C 61.7583 %
245 04-04-2017 00:00:00 11.70917 C 61.7250 %
246 05-04-2017 00:00:00 11.2225 C 60.3000 %
247 06-04-2017 00:00:00 11.25083 C 61.8833 %
248 07-04-2017 00:00:00 11.30833 C 61.5667 %
249 08-04-2017 00:00:00 12.10917 C 64.3167 %
250 09-04-2017 00:00:00 11.93083 C 63.3250 %
Sensor: Nr:Datum:Temp:Feuchte:
G-T/H 251 10-04-2017 00:00:00 12.2625 C 64.3417 %
252 11-04-2017 00:00:00 11.93333 C 61.3750 %
253 12-04-2017 00:00:00 11.73417 C 62.1250 %
254 13-04-2017 00:00:00 12.4775 C 62.8750 %
255 14-04-2017 00:00:00 12.10583 C 60.6583 %
256 15-04-2017 00:00:00 11.93917 C 62.9917 %
257 16-04-2017 00:00:00 11.1475 C 62.5750 %
258 17-04-2017 00:00:00 10.5075 C 62.2583 %
259 18-04-2017 00:00:00 9.84833 C 61.1750 %
260 19-04-2017 00:00:00 9.13917 C 59.2667 %
261 20-04-2017 00:00:00 8.37167 C 53.2417 %
262 21-04-2017 00:00:00 9.44167 C 57.5750 %
263 22-04-2017 00:00:00 10.7925 C 61.3833 %
264 23-04-2017 00:00:00 10.56417 C 59.6333 %
265 24-04-2017 00:00:00 10.66583 C 57.9750 %
266 25-04-2017 00:00:00 11.07395 C 57.7143 %
267 26-04-2017 00:00:00 10.9975 C 52.8000 %
268 27-04-2017 00:00:00 10.80167 C 55.5250 %
269 28-04-2017 00:00:00 9.695 C 54.5000 %
270 29-04-2017 00:00:00 10.51083 C 59.0833 %
271 30-04-2017 00:00:00 11.60583 C 55.6167 %
272 01-05-2017 00:00:00 12.7 C 56.0000 %
273 02-05-2017 00:00:00 11.525 C 63.9432 %
274 03-05-2017 00:00:00 11.48417 C 65.4750 %
275 04-05-2017 00:00:00 12.02333 C 66.8667 %
Sensor: Nr:Datum:Temp:Feuchte:
G-T/H 276 05-05-2017 00:00:00 12.46583 C 66.8917 %
277 06-05-2017 00:00:00 12.505 C 65.2333 %
278 07-05-2017 00:00:00 13.83043 C 67.2696 %
279 08-05-2017 00:00:00 12.83417 C 66.4333 %
280 09-05-2017 00:00:00 12.20583 C 62.3250 %
281 10-05-2017 00:00:00 12.52917 C 54.6833 %
282 11-05-2017 00:00:00 13.12917 C 60.2667 %
283 12-05-2017 00:00:00 14.3375 C 64.2333 %
284 13-05-2017 00:00:00 14.86667 C 65.6583 %
285 14-05-2017 00:00:00 15.34083 C 65.8667 %
286 15-05-2017 00:00:00 16.35667 C 54.4250 %
287 16-05-2017 00:00:00 18.42417 C 50.3083 %
288 17-05-2017 00:00:00 19.76083 C 51.8500 %
289 18-05-2017 00:00:00 18.36833 C 59.9083 %
290 19-05-2017 00:00:00 16.6075 C 64.9333 %
291 20-05-2017 00:00:00 14.935 C 64.1833 %
292 21-05-2017 00:00:00 15.3875 C 58.0667 %
293 22-05-2017 00:00:00 16.8975 C 56.7000 %
294 23-05-2017 00:00:00 17.30167 C 60.5667 %
295 24-05-2017 00:00:00 17.77333 C 59.5750 %
296 25-05-2017 00:00:00 17.38 C 63.0583 %
297 26-05-2017 00:00:00 18.09583 C 61.1583 %
298 27-05-2017 00:00:00 17.95583 C 63.3917 %
299 28-05-2017 00:00:00 18.6625 C 65.0333 %
300 29-05-2017 00:00:00 22.53667 C 59.7333 %
Sensor: Nr:Datum:Temp:Feuchte:
G-T/H 301 30-05-2017 00:00:00 22.135 C 60.5250 %
302 31-05-2017 00:00:00 19.19583 C 54.8917 %
303 01-06-2017 00:00:00 19.02333 C 60.4250 %
304 02-06-2017 00:00:00 19.42667 C 64.1667 %
305 03-06-2017 00:00:00 18.96167 C 68.0500 %
306 04-06-2017 00:00:00 18.245 C 68.2333 %
307 05-06-2017 00:00:00 17.78167 C 63.8583 %
308 06-06-2017 00:00:00 17.53167 C 62.7417 %
309 07-06-2017 00:00:00 16.31 C 63.1083 %
310 08-06-2017 00:00:00 17.10583 C 63.0167 %
311 09-06-2017 00:00:00 17.65833 C 65.4167 %
312 10-06-2017 00:00:00 17.03667 C 64.8083 %
313 11-06-2017 00:00:00 17.98917 C 66.8667 %
314 12-06-2017 00:00:00 20.2225 C 51.9750 %
315 13-06-2017 00:00:00 19.605 C 52.3167 %
316 14-06-2017 00:00:00 20.2375 C 52.8333 %
317 15-06-2017 00:00:00 22.41083 C 52.1917 %
318 16-06-2017 00:00:00 21.05417 C 50.7750 %
319 17-06-2017 00:00:00 19.55083 C 56.9583 %
320 18-06-2017 00:00:00 19.47917 C 61.1333 %
321 19-06-2017 00:00:00 21.37083 C 53.8417 %
322 20-06-2017 00:00:00 23.81417 C 48.4333 %
323 21-06-2017 00:00:00 23.19167 C 55.3333 %
324 22-06-2017 00:00:00 24.54167 C 57.7417 %
325 23-06-2017 00:00:00 23.06 C 57.7583 %
Sensor: Nr:Datum:Temp:Feuchte:
G-T/H 326 24-06-2017 00:00:00 22.64 C 51.3500 %
327 25-06-2017 00:00:00 21.49083 C 54.8583 %
328 26-06-2017 00:00:00 21.5775 C 55.2833 %
329 27-06-2017 00:00:00 20.69417 C 59.6083 %
330 28-06-2017 00:00:00 19.86 C 64.0167 %
331 29-06-2017 00:00:00 19.49417 C 65.1083 %
332 30-06-2017 00:00:00 19.17167 C 60.7667 %
333 01-07-2017 00:00:00 18.81833 C 64.2833 %
334 02-07-2017 00:00:00 18.1925 C 66.6917 %
335 03-07-2017 00:00:00 19.315 C 56.5417 %
336 04-07-2017 00:00:00 20.50083 C 54.7667 %
337 05-07-2017 00:00:00 21.10917 C 57.5583 %
338 06-07-2017 00:00:00 21.4425 C 61.7000 %
339 07-07-2017 00:00:00 21.30333 C 64.3833 %
340 08-07-2017 00:00:00 22.9425 C 56.5250 %
341 09-07-2017 00:00:00 22.685 C 59.5417 %
342 10-07-2017 00:00:00 21.98167 C 63.7417 %
343 11-07-2017 00:00:00 21.20417 C 60.4000 %
344 12-07-2017 00:00:00 20.39167 C 63.4250 %
345 13-07-2017 00:00:00 18.97917 C 57.3833 %
346 14-07-2017 00:00:00 18.96417 C 57.4250 %
347 15-07-2017 00:00:00 18.67083 C 60.6333 %
348 16-07-2017 00:00:00 19.535 C 63.6583 %
349 17-07-2017 00:00:00 19.89917 C 65.6333 %
350 18-07-2017 00:00:00 21.48667 C 62.7583 %
Sensor: Nr:Datum:Temp:Feuchte:
G-T/H 351 19-07-2017 00:00:00 23.825 C 58.2333 %
352 20-07-2017 00:00:00 22.49083 C 62.1083 %
353 21-07-2017 00:00:00 21.79917 C 56.1083 %
354 22-07-2017 00:00:00 22.77167 C 60.8833 %
355 23-07-2017 00:00:00 20.45167 C 59.6000 %
356 24-07-2017 00:00:00 19.83667 C 60.9500 %
357 25-07-2017 00:00:00 18.2725 C 64.9333 %
358 26-07-2017 00:00:00 17.95417 C 67.3667 %
359 27-07-2017 00:00:00 18.53667 C 68.7167 %
360 28-07-2017 00:00:00 18.61833 C 68.6833 %
361 29-07-2017 00:00:00 19.14917 C 68.9333 %
362 30-07-2017 00:00:00 20.87667 C 66.4833 %
363 31-07-2017 00:00:00 21.91167 C 61.1500 %
364 01-08-2017 00:00:00 20.985 C 66.8500 %
365 02-08-2017 00:00:00 21.5925 C 67.6250 %

Maximal/Minimal-Werte vom 03.08.2016 - 02.08.2017

Sensor Min Max Avg
Temp
(Aussen-T/F)
-12.4 °C
22-01-2017  07:59:17
46.2 °C
19-06-2017  18:30:17
10.8 °C
Feuchte
(Aussen-T/F)
20 %
04-08-2016  13:11:17
75 %
01-11-2016  00:41:17
32.98 %
Temp
(G-T/H)
-6 °C
01-12-2016  10:32:18
29 °C
22-06-2017  13:54:17
13.3 °C
Feuchte
(G-T/H)
27 %
27-03-2017  16:04:17
82 %
29-05-2017  11:16:17
64.92 %

Die Daten stammen von einer Davis Vantage Pro 2 Wetter-Station und werden unter Linux mit der Software wview2wettercgi und aufbereitet. Alle Angaben erfolgen ohne Gewähr für ihre Vollständigkeit oder Richtigkeit.
Kontakt: Rainer Krienke krienke@uni-koblenz.de . Meine Webseiten an der Uni Koblenz oder privat.
Version: $Revision: 0.78 $